• In Uzbekistan
  • List of Countries
  • For 7 days
  • Water Temperature
  • Satellite Maps
  • Weather Map
  • Weather Widgets
  • user-avatar
    Login

    Hourly Weather Bad Kohlgrub

    Today, 19 February, Monday

    Time Temperature Precipitation Wind Pressure Humidity
    00:00 -7°C° 0 mm 1 mps 685 mmHg 93%
    01:00 -6°C° 0 mm 2 mps 685 mmHg 90%
    02:00 -6°C° 0 mm 1 mps 684 mmHg 90%
    03:00 -6°C° 0 mm 1 mps 684 mmHg 91%
    04:00 -7°C° 0 mm 1 mps 684 mmHg 91%
    05:00 -7°C° 0 mm 1 mps 684 mmHg 90%
    06:00 -7°C° 0 mm 1 mps 683 mmHg 90%
    07:00 -7°C° 0 mm 1 mps 683 mmHg 89%
    08:00 -4°C° 0 mm 1 mps 683 mmHg 86%
    09:00 -4°C° 0 mm 0 mps 683 mmHg 82%
    10:00 -2°C° 0 mm 0 mps 683 mmHg 79%
    11:00 0°C° 0 mm 1 mps 683 mmHg 80%
    12:00 +1°C° 0 mm 1 mps 683 mmHg 81%
    13:00 +1°C° 0 mm 1 mps 682 mmHg 82%
    14:00 +1°C° 0 mm 1 mps 682 mmHg 85%
    15:00 +1°C° 0 mm 1 mps 681 mmHg 87%
    16:00 0°C° 0 mm 1 mps 681 mmHg 89%
    17:00 0°C° 0.1 mm 1 mps 681 mmHg 92%
    18:00 -1°C° 0.1 mm 1 mps 681 mmHg 94%
    19:00 -2°C° 0.1 mm 1 mps 681 mmHg 96%
    20:00 -3°C° 0 mm 0 mps 681 mmHg 96%
    21:00 -3°C° 0 mm 0 mps 681 mmHg 95%
    22:00 -4°C° 0 mm 0 mps 681 mmHg 95%
    23:00 -4°C° 0 mm 0 mps 681 mmHg 95%

    Tomorrow, 20 February, Tuesday

    Time Temperature Precipitation Wind Pressure Humidity
    00:00 -3°C° 0 mm 1 mps 681 mmHg 95%
    01:00 -4°C° 0 mm 1 mps 681 mmHg 95%
    02:00 -4°C° 0 mm 1 mps 680 mmHg 94%
    03:00 -4°C° 0 mm 1 mps 680 mmHg 94%
    04:00 -4°C° 0 mm 1 mps 680 mmHg 93%
    05:00 -6°C° 0 mm 1 mps 680 mmHg 92%
    06:00 -6°C° 0 mm 1 mps 680 mmHg 92%
    07:00 -6°C° 0 mm 1 mps 680 mmHg 91%
    08:00 -4°C° 0 mm 1 mps 680 mmHg 88%
    09:00 -2°C° 0 mm 1 mps 680 mmHg 85%
    10:00 -1°C° 0 mm 1 mps 680 mmHg 82%
    11:00 -1°C° 0 mm 1 mps 680 mmHg 82%
    12:00 0°C° 0 mm 1 mps 680 mmHg 82%
    13:00 0°C° 0 mm 1 mps 679 mmHg 82%
    14:00 0°C° 0.1 mm 1 mps 679 mmHg 84%
    15:00 -2°C° 0.1 mm 2 mps 679 mmHg 86%
    16:00 -3°C° 0.1 mm 2 mps 679 mmHg 88%
    17:00 -3°C° 0.2 mm 2 mps 679 mmHg 90%
    18:00 -2°C° 0.2 mm 1 mps 679 mmHg 92%
    19:00 -3°C° 0.2 mm 1 mps 680 mmHg 95%
    20:00 -4°C° 0.1 mm 1 mps 680 mmHg 95%
    21:00 -4°C° 0.1 mm 1 mps 680 mmHg 95%
    22:00 -6°C° 0.1 mm 0 mps 680 mmHg 96%
    23:00 -6°C° 0 mm 1 mps 680 mmHg 96%

    Day after tomorrow, 21 February, Wednesday

    Time Temperature Precipitation Wind Pressure Humidity
    00:00 -7°C° 0 mm 1 mps 681 mmHg 96%
    01:00 -7°C° 0 mm 1 mps 681 mmHg 96%
    02:00 -7°C° 0.1 mm 1 mps 681 mmHg 95%
    03:00 -7°C° 0.1 mm 1 mps 681 mmHg 95%
    04:00 -7°C° 0.1 mm 1 mps 681 mmHg 95%
    05:00 -7°C° 0.1 mm 1 mps 681 mmHg 94%
    06:00 -7°C° 0.1 mm 1 mps 681 mmHg 94%
    07:00 -7°C° 0.1 mm 1 mps 681 mmHg 94%
    08:00 -6°C° 0.1 mm 1 mps 682 mmHg 92%
    09:00 -3°C° 0.1 mm 1 mps 682 mmHg 91%
    10:00 -2°C° 0.1 mm 1 mps 682 mmHg 89%
    11:00 -3°C° 0.1 mm 2 mps 682 mmHg 88%
    12:00 -3°C° 0.1 mm 2 mps 681 mmHg 87%
    13:00 -2°C° 0.1 mm 2 mps 681 mmHg 86%
    14:00 -2°C° 0.1 mm 2 mps 681 mmHg 87%
    15:00 -2°C° 0.1 mm 2 mps 680 mmHg 88%
    16:00 -2°C° 0.1 mm 2 mps 680 mmHg 89%
    17:00 -3°C° 0.2 mm 2 mps 680 mmHg 91%
    18:00 -4°C° 0.2 mm 2 mps 680 mmHg 93%
    19:00 -4°C° 0.2 mm 2 mps 680 mmHg 95%
    20:00 -5°C° 0.1 mm 2 mps 680 mmHg 95%
    21:00 -5°C° 0.1 mm 2 mps 680 mmHg 95%
    22:00 -5°C° 0.1 mm 2 mps 680 mmHg 95%
    23:00 -5°C° 0.2 mm 2 mps 680 mmHg 95%

    22 February, Thursday

    Time Temperature Precipitation Wind Pressure Humidity
    00:00 -6°C° 0.2 mm 2 mps 680 mmHg 95%
    01:00 -6°C° 0.2 mm 2 mps 680 mmHg 94%
    02:00 -6°C° 0.2 mm 2 mps 679 mmHg 94%
    03:00 -6°C° 0.2 mm 2 mps 679 mmHg 94%
    04:00 -7°C° 0.2 mm 3 mps 679 mmHg 94%
    05:00 -7°C° 0.2 mm 3 mps 678 mmHg 94%
    06:00 -8°C° 0.2 mm 3 mps 678 mmHg 94%
    07:00 -8°C° 0.2 mm 3 mps 678 mmHg 93%
    08:00 -7°C° 0.2 mm 3 mps 678 mmHg 92%
    09:00 -7°C° 0.2 mm 3 mps 678 mmHg 91%
    10:00 -6°C° 0.2 mm 3 mps 678 mmHg 90%
    11:00 -5°C° 0.2 mm 3 mps 677 mmHg 89%
    12:00 -5°C° 0.2 mm 3 mps 677 mmHg 89%
    13:00 -4°C° 0.2 mm 4 mps 677 mmHg 88%
    14:00 -4°C° 0.2 mm 4 mps 677 mmHg 89%
    15:00 -4°C° 0.2 mm 4 mps 677 mmHg 90%
    16:00 -4°C° 0.2 mm 4 mps 677 mmHg 90%
    17:00 -5°C° 0.2 mm 3 mps 677 mmHg 92%
    18:00 -5°C° 0.2 mm 3 mps 677 mmHg 93%
    19:00 -6°C° 0.2 mm 3 mps 677 mmHg 94%
    20:00 -6°C° 0.1 mm 3 mps 677 mmHg 94%
    21:00 -6°C° 0.1 mm 3 mps 677 mmHg 94%
    22:00 -5°C° 0.1 mm 2 mps 678 mmHg 94%
    23:00 -6°C° 0 mm 2 mps 677 mmHg 94%

    23 February, Friday

    Time Temperature Precipitation Wind Pressure Humidity
    00:00 -6°C° 0 mm 2 mps 677 mmHg 93%
    01:00 -6°C° 0 mm 2 mps 677 mmHg 93%
    02:00 -7°C° 0 mm 2 mps 677 mmHg 93%
    03:00 -7°C° 0 mm 2 mps 677 mmHg 93%
    04:00 -7°C° 0 mm 2 mps 677 mmHg 93%
    05:00 -7°C° 0 mm 2 mps 677 mmHg 93%
    06:00 -7°C° 0 mm 2 mps 677 mmHg 93%
    07:00 -7°C° 0 mm 2 mps 677 mmHg 93%
    08:00 -6°C° 0.1 mm 2 mps 677 mmHg 91%
    09:00 -5°C° 0.1 mm 2 mps 678 mmHg 90%
    10:00 -5°C° 0.1 mm 3 mps 678 mmHg 88%
    11:00 -4°C° 0.1 mm 3 mps 678 mmHg 88%
    12:00 -4°C° 0.1 mm 3 mps 678 mmHg 88%
    13:00 -2°C° 0.1 mm 3 mps 678 mmHg 88%
    14:00 -2°C° 0.1 mm 3 mps 678 mmHg 88%
    15:00 -3°C° 0.1 mm 4 mps 678 mmHg 89%
    16:00 -3°C° 0.1 mm 4 mps 678 mmHg 89%
    17:00 -4°C° 0.1 mm 4 mps 678 mmHg 91%
    18:00 -4°C° 0.1 mm 3 mps 679 mmHg 92%
    19:00 -5°C° 0.1 mm 3 mps 679 mmHg 93%
    20:00 -6°C° 0.1 mm 3 mps 679 mmHg 93%
    21:00 -6°C° 0.1 mm 3 mps 680 mmHg 93%
    22:00 -6°C° 0.1 mm 3 mps 680 mmHg 92%
    23:00 -7°C° 0 mm 3 mps 681 mmHg 92%

    24 February, Saturday

    Time Temperature Precipitation Wind Pressure Humidity
    00:00 -7°C° 0 mm 3 mps 681 mmHg 92%
    01:00 -8°C° 0 mm 3 mps 681 mmHg 92%
    02:00 -8°C° 0 mm 3 mps 681 mmHg 91%
    03:00 -9°C° 0 mm 3 mps 681 mmHg 90%
    04:00 -9°C° 0 mm 3 mps 681 mmHg 90%
    05:00 -10°C° 0 mm 3 mps 682 mmHg 89%
    06:00 -10°C° 0 mm 3 mps 682 mmHg 89%
    07:00 -10°C° 0 mm 2 mps 682 mmHg 89%
    08:00 -10°C° 0 mm 3 mps 683 mmHg 87%
    09:00 -8°C° 0 mm 3 mps 683 mmHg 85%
    10:00 -7°C° 0 mm 3 mps 684 mmHg 83%
    11:00 -7°C° 0 mm 3 mps 684 mmHg 82%
    12:00 -7°C° 0 mm 4 mps 684 mmHg 80%
    13:00 -5°C° 0 mm 4 mps 684 mmHg 79%
    14:00 -7°C° 0 mm 4 mps 683 mmHg 79%
    15:00 -7°C° 0 mm 4 mps 683 mmHg 78%
    16:00 -7°C° 0 mm 4 mps 683 mmHg 78%
    17:00 -7°C° 0 mm 3 mps 683 mmHg 80%
    18:00 -9°C° 0 mm 3 mps 683 mmHg 82%
    19:00 -10°C° 0 mm 3 mps 683 mmHg 85%
    20:00 -10°C° 0 mm 3 mps 683 mmHg 85%
    21:00 -10°C° 0 mm 2 mps 684 mmHg 86%
    22:00 -10°C° 0 mm 2 mps 684 mmHg 86%
    23:00 -12°C° 0 mm 2 mps 683 mmHg 87%
    Show more